• In Belgium
  • List of Countries
  • For 7 days
  • Water Temperature
  • Satellite Maps
  • Weather Map
  • Weather Widgets
  • user-avatar
    Login

    Hourly Weather Burdur

    Today, 25 April, Wednesday

    Time Temperature Precipitation Wind Pressure Humidity
    00:00 +15°C° 0 mm 1 mps 676 mmHg 46%
    01:00 +14°C° 0 mm 1 mps 676 mmHg 46%
    02:00 +14°C° 0 mm 1 mps 676 mmHg 50%
    03:00 +14°C° 0 mm 1 mps 676 mmHg 50%
    04:00 +13°C° 0 mm 1 mps 676 mmHg 50%
    05:00 +13°C° 0 mm 1 mps 676 mmHg 50%
    06:00 +15°C° 0 mm 1 mps 676 mmHg 45%
    07:00 +18°C° 0 mm 1 mps 677 mmHg 39%
    08:00 +20°C° 0 mm 1 mps 677 mmHg 34%
    09:00 +22°C° 0 mm 1 mps 678 mmHg 31%
    10:00 +23°C° 0 mm 1 mps 678 mmHg 28%
    11:00 +24°C° 0 mm 1 mps 678 mmHg 24%
    12:00 +25°C° 0 mm 1 mps 678 mmHg 23%
    13:00 +25°C° 0 mm 1 mps 677 mmHg 22%
    14:00 +26°C° 0 mm 2 mps 677 mmHg 20%
    15:00 +25°C° 0 mm 2 mps 677 mmHg 21%
    16:00 +25°C° 0 mm 2 mps 677 mmHg 22%
    17:00 +25°C° 0 mm 2 mps 677 mmHg 23%
    18:00 +23°C° 0 mm 2 mps 676 mmHg 28%
    19:00 +20°C° 0 mm 2 mps 676 mmHg 33%
    20:00 +20°C° 0 mm 1 mps 676 mmHg 38%
    21:00 +19°C° 0 mm 1 mps 676 mmHg 41%
    22:00 +18°C° 0 mm 1 mps 676 mmHg 44%
    23:00 +16°C° 0 mm 1 mps 676 mmHg 47%

    Tomorrow, 26 April, Thursday

    Time Temperature Precipitation Wind Pressure Humidity
    00:00 +16°C° 0 mm 1 mps 676 mmHg 48%
    01:00 +15°C° 0 mm 1 mps 676 mmHg 48%
    02:00 +15°C° 0 mm 1 mps 675 mmHg 49%
    03:00 +14°C° 0 mm 1 mps 675 mmHg 49%
    04:00 +14°C° 0 mm 1 mps 675 mmHg 50%
    05:00 +14°C° 0 mm 1 mps 675 mmHg 51%
    06:00 +16°C° 0 mm 1 mps 675 mmHg 46%
    07:00 +19°C° 0 mm 1 mps 676 mmHg 41%
    08:00 +21°C° 0 mm 1 mps 676 mmHg 35%
    09:00 +22°C° 0 mm 1 mps 677 mmHg 32%
    10:00 +24°C° 0 mm 1 mps 677 mmHg 28%
    11:00 +25°C° 0 mm 2 mps 677 mmHg 24%
    12:00 +25°C° 0 mm 2 mps 676 mmHg 23%
    13:00 +26°C° 0 mm 2 mps 676 mmHg 22%
    14:00 +26°C° 0 mm 2 mps 676 mmHg 21%
    15:00 +26°C° 0.1 mm 2 mps 676 mmHg 24%
    16:00 +25°C° 0.1 mm 3 mps 675 mmHg 27%
    17:00 +24°C° 0.1 mm 3 mps 675 mmHg 30%
    18:00 +22°C° 0.2 mm 3 mps 675 mmHg 38%
    19:00 +20°C° 0.2 mm 3 mps 675 mmHg 45%
    20:00 +18°C° 0.2 mm 2 mps 675 mmHg 53%
    21:00 +17°C° 0.2 mm 2 mps 675 mmHg 57%
    22:00 +18°C° 0.2 mm 1 mps 675 mmHg 61%
    23:00 +16°C° 0.2 mm 1 mps 675 mmHg 65%

    Day after tomorrow, 27 April, Friday

    Time Temperature Precipitation Wind Pressure Humidity
    00:00 +15°C° 0.1 mm 1 mps 674 mmHg 67%
    01:00 +15°C° 0.1 mm 1 mps 674 mmHg 68%
    02:00 +15°C° 0.1 mm 1 mps 674 mmHg 70%
    03:00 +14°C° 0.1 mm 1 mps 674 mmHg 70%
    04:00 +14°C° 0.1 mm 1 mps 673 mmHg 71%
    05:00 +14°C° 0.1 mm 1 mps 673 mmHg 71%
    06:00 +16°C° 0 mm 1 mps 674 mmHg 65%
    07:00 +18°C° 0 mm 1 mps 674 mmHg 58%
    08:00 +20°C° 0 mm 1 mps 675 mmHg 52%
    09:00 +21°C° 0 mm 1 mps 675 mmHg 47%
    10:00 +22°C° 0 mm 1 mps 675 mmHg 42%
    11:00 +24°C° 0 mm 1 mps 676 mmHg 36%
    12:00 +24°C° 0 mm 2 mps 675 mmHg 35%
    13:00 +24°C° 0 mm 2 mps 675 mmHg 35%
    14:00 +25°C° 0 mm 2 mps 675 mmHg 34%
    15:00 +24°C° 0.4 mm 2 mps 675 mmHg 37%
    16:00 +23°C° 0.4 mm 2 mps 675 mmHg 41%
    17:00 +21°C° 0.4 mm 3 mps 675 mmHg 45%
    18:00 +20°C° 0.3 mm 2 mps 675 mmHg 52%
    19:00 +19°C° 0.3 mm 2 mps 675 mmHg 59%
    20:00 +17°C° 0.3 mm 2 mps 676 mmHg 66%
    21:00 +17°C° 0.1 mm 2 mps 676 mmHg 68%
    22:00 +17°C° 0.1 mm 2 mps 676 mmHg 70%
    23:00 +16°C° 0.1 mm 1 mps 676 mmHg 73%

    28 April, Saturday

    Time Temperature Precipitation Wind Pressure Humidity
    00:00 +16°C° 0 mm 2 mps 676 mmHg 74%
    01:00 +15°C° 0 mm 2 mps 675 mmHg 75%
    02:00 +15°C° 0 mm 2 mps 675 mmHg 76%
    03:00 +15°C° 0 mm 2 mps 675 mmHg 76%
    04:00 +14°C° 0 mm 2 mps 675 mmHg 77%
    05:00 +14°C° 0 mm 2 mps 675 mmHg 77%
    06:00 +16°C° 0 mm 2 mps 676 mmHg 69%
    07:00 +17°C° 0 mm 2 mps 676 mmHg 62%
    08:00 +19°C° 0 mm 2 mps 677 mmHg 54%
    09:00 +21°C° 0 mm 2 mps 677 mmHg 47%
    10:00 +24°C° 0 mm 3 mps 677 mmHg 40%
    11:00 +25°C° 0 mm 3 mps 678 mmHg 33%
    12:00 +26°C° 0 mm 3 mps 677 mmHg 31%
    13:00 +27°C° 0 mm 3 mps 677 mmHg 28%
    14:00 +27°C° 0 mm 4 mps 677 mmHg 26%
    15:00 +27°C° 0 mm 4 mps 677 mmHg 27%
    16:00 +27°C° 0 mm 4 mps 677 mmHg 28%
    17:00 +26°C° 0 mm 4 mps 677 mmHg 29%
    18:00 +24°C° 0 mm 3 mps 677 mmHg 33%
    19:00 +22°C° 0 mm 3 mps 677 mmHg 38%
    20:00 +20°C° 0 mm 2 mps 677 mmHg 42%
    21:00 +19°C° 0 mm 2 mps 677 mmHg 46%
    22:00 +20°C° 0 mm 1 mps 677 mmHg 50%
    23:00 +19°C° 0 mm 1 mps 677 mmHg 53%

    29 April, Sunday

    Time Temperature Precipitation Wind Pressure Humidity
    00:00 +18°C° 0 mm 1 mps 677 mmHg 53%
    01:00 +18°C° 0 mm 1 mps 677 mmHg 53%
    02:00 +16°C° 0 mm 1 mps 676 mmHg 52%
    03:00 +16°C° 0 mm 1 mps 676 mmHg 52%
    04:00 +16°C° 0 mm 1 mps 676 mmHg 52%
    05:00 +15°C° 0 mm 1 mps 676 mmHg 51%
    06:00 +18°C° 0 mm 1 mps 677 mmHg 46%
    07:00 +20°C° 0 mm 1 mps 677 mmHg 41%
    08:00 +22°C° 0 mm 1 mps 678 mmHg 36%
    09:00 +23°C° 0 mm 2 mps 678 mmHg 34%
    10:00 +24°C° 0 mm 2 mps 678 mmHg 31%
    11:00 +25°C° 0 mm 2 mps 678 mmHg 29%
    12:00 +26°C° 0 mm 2 mps 678 mmHg 28%
    13:00 +26°C° 0 mm 2 mps 678 mmHg 28%
    14:00 +26°C° 0 mm 2 mps 678 mmHg 28%
    15:00 +26°C° 0 mm 2 mps 677 mmHg 30%
    16:00 +26°C° 0 mm 2 mps 677 mmHg 32%
    17:00 +25°C° 0 mm 2 mps 677 mmHg 34%
    18:00 +24°C° 0 mm 2 mps 677 mmHg 41%
    19:00 +21°C° 0 mm 2 mps 677 mmHg 47%
    20:00 +20°C° 0 mm 1 mps 677 mmHg 54%
    21:00 +20°C° 0.2 mm 1 mps 677 mmHg 57%
    22:00 +19°C° 0.2 mm 1 mps 676 mmHg 61%
    23:00 +16°C° 0.2 mm 0 mps 676 mmHg 65%

    30 April, Monday

    Time Temperature Precipitation Wind Pressure Humidity
    00:00 +16°C° 0 mm 0 mps 676 mmHg 65%
    01:00 +16°C° 0 mm 0 mps 676 mmHg 65%
    02:00 +15°C° 0 mm 0 mps 675 mmHg 65%
    03:00 +15°C° 0 mm 0 mps 675 mmHg 65%
    04:00 +15°C° 0 mm 0 mps 675 mmHg 65%
    05:00 +14°C° 0 mm 0 mps 675 mmHg 65%
    06:00 +16°C° 0 mm 0 mps 675 mmHg 58%
    07:00 +18°C° 0 mm 0 mps 676 mmHg 50%
    08:00 +20°C° 0 mm 0 mps 676 mmHg 43%
    09:00 +23°C° 0 mm 1 mps 676 mmHg 39%
    10:00 +24°C° 0 mm 1 mps 677 mmHg 35%
    11:00 +26°C° 0 mm 1 mps 677 mmHg 30%
    12:00 +26°C° 0 mm 1 mps 676 mmHg 29%
    13:00 +27°C° 0 mm 1 mps 676 mmHg 28%
    14:00 +27°C° 0 mm 2 mps 676 mmHg 26%
    15:00 +27°C° 0.2 mm 2 mps 676 mmHg 28%
    16:00 +26°C° 0.2 mm 2 mps 675 mmHg 31%
    17:00 +26°C° 0.2 mm 2 mps 675 mmHg 33%
    18:00 +24°C° 0.3 mm 2 mps 675 mmHg 40%
    19:00 +23°C° 0.3 mm 2 mps 675 mmHg 46%
    20:00 +20°C° 0.3 mm 2 mps 675 mmHg 53%
    21:00 +19°C° 0.4 mm 2 mps 675 mmHg 57%
    22:00 +20°C° 0.4 mm 1 mps 675 mmHg 60%
    23:00 +19°C° 0.4 mm 1 mps 675 mmHg 63%
    Show more